Regional Weather Roundup
Issued by NWS

Home | Current Version | Previous Version | Text Only | Print | Product List | Glossary Off
Versions: 1 2 3 4 5 6 7 8 9 10 11 12 13 14 15 16 17 18 19 20 21 22 23 24 25 26 27 28 29 30 31 32 33 34 35 36 37 38 39 40 41 42 43 44 45 46 47 48 49 50

000
ASUS43 KLOT 190506
RWRIL

ILLINOIS REGIONAL WEATHER ROUNDUP
NATIONAL WEATHER SERVICE CHICAGO/ROMEOVILLE IL
1200 AM CDT FRI SEP 19 2014

NOTE: "FAIR" INDICATES FEW OR NO CLOUDS BELOW 12,000 FEET WITH NO
SIGNIFICANT WEATHER AND/OR OBSTRUCTIONS TO VISIBILITY.

* THESE STATIONS ARE NOT UNDER NWS QUALITY CONTROL. THEY ALSO MAY NOT
  REPORT WEATHER SUCH AS PRECIPITATION OR FOG.

ILZ001-002-007-009-015-016-024-190600-
NORTHWEST ILLINOIS

CITY           SKY/WX    TMP DP  RH WIND       PRES   REMARKS
MOLINE         CLEAR     55  49  80 E8        30.12R
STERLING*      CLEAR     52  46  82 E5        30.14R
SAVANNA*       CLEAR     56  52  86 CALM      30.13S
$$

ILZ003-004-008-010-011-017-018-190600-
NORTH CENTRAL ILLINOIS

CITY           SKY/WX    TMP DP  RH WIND       PRES   REMARKS
ROCKFORD       CLEAR     53  50  89 E6        30.17F
FREEPORT*      CLEAR     50  49  95 E5        30.16S FOG
ROCHELLE*      CLEAR     53  51  94 E6        30.15F FOG
DE KALB*       CLEAR     51  50  97 E8        30.16F FOG
PERU*          CLEAR     55  53  91 E8        30.15R FOG
$$

ILZ005-006-012>014-019>023-190600-
NORTHEAST ILLINOIS

CITY           SKY/WX    TMP DP  RH WIND       PRES   REMARKS
CHICAGO-OHARE  PTCLDY    58  52  80 CALM      30.17R
CHICAGO-MIDWAY CLEAR     61  58  90 NE3       30.16R
AURORA         CLEAR     52  50  93 NE6       30.17R FOG
LANSING*       PTCLDY    56  55  98 CALM      30.16S FOG
JOLIET*        CLEAR     56  54  92 NE5       30.17R FOG
WAUKEGAN       MOCLDY    54  53  97 NE6       30.17R FOG
DUPAGE AIRPORT PTCLDY    52  50  93 N5        30.16R FOG
KANKAKEE*        N/A     54  54  98 CALM      30.15S FOG
WHEELING       MOCLDY    54  51  90 CALM      30.19R
MORRIS*        CLEAR     52  52 100 CALM      30.16R FOG
ROMEOVILLE*    CLEAR     56  56  99 E8        30.16R FOG
NORTHERLY ISL    N/A     60  57  89 MISG        N/A
$$

LMZ740>746-190600-
SOUTHERN LAKE MICHIGAN

STATION/POSITION SKY/WX   TEMP    WIND        PRES    VSBY  WAVE
                          AIR SEA DIR/SP/G                  HT/PER
                          (F)     (DEG/KT/KT) (MB)    (MI)  (FT/S)
SOUTHERN BUOY              61 63  110/ 12/ 16 1022.0R         2/ 5
WAUKEGAN HARBOR            60      60/  8/ 11   N/A
HARRISON CRIB              61      20/  4/  4   N/A
BURNHAM HARBOR             60     360/  4/  7   N/A
CALUMET HARBOR             61      20/  3/  4 1020.1R
MICHIGAN CITY              58      90/  8/ 10   N/A
MICHIGAN CITY 6N           61 65  110/  8/ 12   N/A           3/ 2
ST. JOSEPH                 60 66  110/ 14/ 19   N/A           2/ 2
$$

ILZ025>027-034>036-040-047-049-050-058-095>099-190600-
WEST-CENTRAL ILLINOIS

CITY           SKY/WX    TMP DP  RH WIND       PRES   REMARKS
QUINCY         CLEAR     60  52  74 E7        30.08S
GALESBURG*     CLEAR     55  49  78 E6        30.11S
MACOMB*        CLEAR     51  49  93 NE3       30.12R
JACKSONVILLE*  CLEAR     53  50  89 E5        30.10S
PITTSFIELD*    CLEAR     56  53  89 CALM      30.10S
$$

ILZ028>032-037-038-041>044-048-051>054-059>061-190600-
CENTRAL ILLINOIS

CITY           SKY/WX    TMP DP  RH WIND       PRES   REMARKS
PONTIAC        CLEAR     55  55 100 E3        30.14R FOG
DECATUR        CLEAR     52  46  80 CALM      30.12R
PEORIA         CLEAR     59  52  77 E9        30.12S
LACON*         CLEAR     54  51  90 E8        30.13R
LINCOLN*       CLEAR     52  47  85 CALM      30.10R
SPRINGFIELD    CLEAR     53  47  79 E3        30.11R
TAYLORVILLE    CLEAR     54  46  76 E6        30.10S
$$

ILZ033-039-045-046-055>057-062-063-190600-
EAST-CENTRAL ILLINOIS

CITY           SKY/WX    TMP DP  RH WIND       PRES   REMARKS
CHAMPAIGN      CLEAR     53  49  86 E7        30.13R
DANVILLE*      CLEAR     55  50  83 E5        30.11S
RANTOUL*       CLEAR     55  49  79 E5        30.14R
MATTOON        CLEAR     53  49  86 NE3       30.11R
PARIS*         CLEAR     53  51  94 E3        30.13R
$$

ILZ079-100>102-190600-
SOUTHWEST ILLINOIS

CITY           SKY/WX    TMP DP  RH WIND       PRES   REMARKS
ALTON          CLEAR     55  54  95 CALM      30.09R FOG
BELLEVILLE     CLEAR     56  56  99 CALM      30.07S FOG
CAHOKIA*       CLEAR     56  54  93 CALM      30.07S
SPARTA*        CLEAR     56  53  91 CALM      30.08S
$$

ILZ064>066-069>071-074>076-080>082-084>086-088>090-092>094-190600-
SOUTH-CENTRAL ILLINOIS

CITY           SKY/WX    TMP DP  RH WIND       PRES   REMARKS
CARBONDALE     CLEAR     54  53  97 CALM      30.07S FOG
CAIRO*         CLEAR     59  55  84 NE3       30.05S
EFFINGHAM*     CLEAR     52  49  89 CALM      30.10S
MARION         CLEAR     57  55  94 CALM      30.08R
MT. VERNON     CLEAR     54  48  82 NE3       30.09S
CENTRALIA*     CLEAR     53  51  92 CALM      30.08S FOG
SALEM*         CLEAR     62  56  81 CALM      30.09F
METROPOLIS*    CLEAR     56  56  97 CALM      30.05S
$$

ILZ067-068-072-073-078-083-087-091-190600-
SOUTHEAST ILLINOIS

CITY           SKY/WX    TMP DP  RH WIND       PRES   REMARKS
LAWRENCEVILLE  CLEAR     54  51  90 NE5       30.10S
FLORA*         CLEAR     55  52  88 CALM      30.10S
FAIRFIELD*     CLEAR    N/A N/A N/A CALM      30.09S
HARRISBURG*    CLEAR     60  55  83 NE5       30.08S
ROBINSON*      FOG       50  50  99 CALM      30.11F VSB 1/4
CARMI*         CLEAR     55  54  96 NE3       30.08R
$$

ABBREVIATIONS USED IN REMARKS
   TC - TEMPERATURE IN CELSIUS
  WCI - WIND CHILL INDEX
   HX - HEAT INDEX
  VSB - VISIBILITY
$$



USA.gov is the U.S. government's official web portal to all federal, state and local government web resources and services.